Time,TemperatureF,DewpointF,PressureIn,WindDirection,WindDirectionDegrees,WindSpeedMPH,WindSpeedGustMPH,Humidity,HourlyPrecipIn,Conditions,Clouds,dailyrainin,SoftwareType,DateUTC
2013-09-19 00:00:00,59.7,52.5,30.18,NE,51,0.0,0.0,77,0.00,CLR,,0.00,WeatherDisplay:10.37,2013-09-19 04:00:00,
2013-09-19 00:05:00,59.5,52.3,30.18,NE,51,0.0,0.0,77,0.00,CLR,,0.00,WeatherDisplay:10.37,2013-09-19 04:05:00,
2013-09-19 00:10:00,59.5,52.3,30.18,NE,51,0.0,0.0,77,0.00,CLR,,0.00,WeatherDisplay:10.37,2013-09-19 04:10:00,
2013-09-19 00:15:00,59.4,52.1,30.18,NE,51,0.0,0.0,77,0.00,CLR,,0.00,WeatherDisplay:10.37,2013-09-19 04:15:00,
2013-09-19 00:20:00,59.4,52.1,30.18,NE,51,0.0,0.0,77,0.00,CLR,,0.00,WeatherDisplay:10.37,2013-09-19 04:20:00,
2013-09-19 00:30:00,59.2,52.3,30.18,NE,51,0.0,0.0,78,0.00,CLR,,0.00,WeatherDisplay:10.37,2013-09-19 04:30:00,
2013-09-19 00:35:00,59.2,52.3,30.18,NE,51,0.0,0.0,78,0.00,CLR,,0.00,WeatherDisplay:10.37,2013-09-19 04:35:00,
2013-09-19 00:40:00,59.0,52.1,30.18,NE,51,0.0,0.0,78,0.00,CLR,,0.00,WeatherDisplay:10.37,2013-09-19 04:40:00,
2013-09-19 00:45:00,59.0,52.1,30.18,NE,51,0.0,0.0,78,0.00,CLR,,0.00,WeatherDisplay:10.37,2013-09-19 04:45:00,
2013-09-19 00:50:00,59.0,52.5,30.18,NE,51,0.0,0.0,79,0.00,CLR,,0.00,WeatherDisplay:10.37,2013-09-19 04:50:00,
2013-09-19 00:55:00,59.0,52.5,30.18,NE,51,0.0,0.0,79,0.00,CLR,,0.00,WeatherDisplay:10.37,2013-09-19 04:55:00,
2013-09-19 01:00:00,59.0,52.5,30.18,NE,51,0.0,0.0,79,0.00,CLR,,0.00,WeatherDisplay:10.37,2013-09-19 05:00:00,
2013-09-19 01:05:00,58.8,52.3,30.18,NE,51,0.0,0.0,79,0.00,CLR,,0.00,WeatherDisplay:10.37,2013-09-19 05:05:00,
2013-09-19 01:10:00,58.8,52.3,30.18,NE,51,0.0,0.0,79,0.00,CLR,,0.00,WeatherDisplay:10.37,2013-09-19 05:10:00,
2013-09-19 01:15:00,58.8,52.3,30.18,NE,51,0.0,0.0,79,0.00,CLR,,0.00,WeatherDisplay:10.37,2013-09-19 05:15:00,
2013-09-19 01:20:00,58.8,52.7,30.18,NE,51,0.0,0.0,80,0.00,CLR,,0.00,WeatherDisplay:10.37,2013-09-19 05:20:00,
2013-09-19 01:25:00,58.6,52.5,30.18,NE,51,0.0,0.0,80,0.00,CLR,,0.00,WeatherDisplay:10.37,2013-09-19 05:25:00,
2013-09-19 01:30:00,58.6,52.5,30.18,NE,51,0.0,0.0,80,0.00,CLR,,0.00,WeatherDisplay:10.37,2013-09-19 05:30:00,
2013-09-19 01:35:00,58.5,52.3,30.18,NE,51,0.0,0.0,80,0.00,CLR,,0.00,WeatherDisplay:10.37,2013-09-19 05:35:00,
2013-09-19 01:40:00,58.5,52.3,30.18,NE,51,0.0,0.0,80,0.00,CLR,,0.00,WeatherDisplay:10.37,2013-09-19 05:40:00,
2013-09-19 01:50:00,58.3,52.5,30.18,NE,51,0.0,0.0,81,0.00,CLR,,0.00,WeatherDisplay:10.37,2013-09-19 05:50:00,
2013-09-19 01:55:00,58.3,52.5,30.18,NE,51,0.0,0.0,81,0.00,CLR,,0.00,WeatherDisplay:10.37,2013-09-19 05:55:00,
2013-09-19 02:00:00,58.3,52.5,30.18,NE,51,0.0,0.0,81,0.00,CLR,,0.00,WeatherDisplay:10.37,2013-09-19 06:00:00,
2013-09-19 02:05:00,58.1,52.3,30.18,NE,51,0.0,0.0,81,0.00,CLR,,0.00,WeatherDisplay:10.37,2013-09-19 06:05:00,
2013-09-19 02:10:00,58.1,52.3,30.18,NE,51,0.0,0.0,81,0.00,CLR,,0.00,WeatherDisplay:10.37,2013-09-19 06:10:00,
2013-09-19 02:15:00,57.9,52.5,30.18,NE,51,0.0,0.0,82,0.00,CLR,,0.00,WeatherDisplay:10.37,2013-09-19 06:15:00,
2013-09-19 02:20:00,57.9,52.5,30.18,NE,51,0.0,0.0,82,0.00,CLR,,0.00,WeatherDisplay:10.37,2013-09-19 06:20:00,
2013-09-19 02:25:00,57.9,52.5,30.18,NE,51,0.0,0.0,82,0.00,CLR,,0.00,WeatherDisplay:10.37,2013-09-19 06:25:00,
2013-09-19 02:30:00,57.7,52.3,30.18,NE,51,0.0,0.0,82,0.00,CLR,,0.00,WeatherDisplay:10.37,2013-09-19 06:30:00,
2013-09-19 02:35:00,57.7,52.6,30.18,NE,51,0.0,0.0,83,0.00,CLR,,0.00,WeatherDisplay:10.37,2013-09-19 06:35:00,
2013-09-19 02:40:00,57.7,52.6,30.16,NE,51,0.0,0.0,83,0.00,CLR,,0.00,WeatherDisplay:10.37,2013-09-19 06:40:00,
2013-09-19 02:45:00,57.7,52.6,30.15,NE,51,0.0,0.0,83,0.00,CLR,,0.00,WeatherDisplay:10.37,2013-09-19 06:45:00,
2013-09-19 02:50:00,57.6,52.4,30.15,NE,51,0.0,0.0,83,0.00,CLR,,0.00,WeatherDisplay:10.37,2013-09-19 06:50:00,
2013-09-19 02:55:00,57.6,52.4,30.15,NE,51,0.0,0.0,83,0.00,CLR,,0.00,WeatherDisplay:10.37,2013-09-19 06:55:00,
2013-09-19 03:00:00,57.6,52.4,30.15,NE,51,0.0,0.0,83,0.00,CLR,,0.00,WeatherDisplay:10.37,2013-09-19 07:00:00,
2013-09-19 03:05:00,57.4,52.6,30.15,NE,51,0.0,0.0,84,0.00,CLR,,0.00,WeatherDisplay:10.37,2013-09-19 07:05:00,
2013-09-19 03:10:00,57.4,52.6,30.15,NE,51,0.0,0.0,84,0.00,CLR,,0.00,WeatherDisplay:10.37,2013-09-19 07:10:00,
2013-09-19 03:15:00,57.2,52.4,30.15,NE,51,0.0,0.0,84,0.00,CLR,,0.00,WeatherDisplay:10.37,2013-09-19 07:15:00,
2013-09-19 03:20:00,57.2,52.4,30.15,NE,51,0.0,0.0,84,0.00,CLR,,0.00,WeatherDisplay:10.37,2013-09-19 07:20:00,
2013-09-19 03:25:00,57.2,52.4,30.15,NE,51,0.0,0.0,84,0.00,CLR,,0.00,WeatherDisplay:10.37,2013-09-19 07:25:00,
2013-09-19 03:30:00,57.0,52.2,30.15,NE,51,0.0,0.0,84,0.00,CLR,,0.00,WeatherDisplay:10.37,2013-09-19 07:30:00,
2013-09-19 03:35:00,57.0,52.2,30.15,NE,51,0.0,0.0,84,0.00,CLR,,0.00,WeatherDisplay:10.37,2013-09-19 07:35:00,
2013-09-19 03:40:00,57.0,52.6,30.15,NE,51,0.0,0.0,85,0.00,CLR,,0.00,WeatherDisplay:10.37,2013-09-19 07:40:00,
2013-09-19 03:50:00,57.0,52.6,30.15,NE,51,0.0,0.0,85,0.00,CLR,,0.00,WeatherDisplay:10.37,2013-09-19 07:50:00,
2013-09-19 03:55:00,57.0,52.6,30.15,NE,51,0.0,0.0,85,0.00,CLR,,0.00,WeatherDisplay:10.37,2013-09-19 07:55:00,
2013-09-19 04:00:00,56.8,52.4,30.15,NE,51,0.0,0.0,85,0.00,CLR,,0.00,WeatherDisplay:10.37,2013-09-19 08:00:00,
2013-09-19 04:05:00,56.8,52.4,30.15,NE,51,0.0,0.0,85,0.00,CLR,,0.00,WeatherDisplay:10.37,2013-09-19 08:05:00,
2013-09-19 04:10:00,56.8,52.4,30.15,NE,51,0.0,0.0,85,0.00,CLR,,0.00,WeatherDisplay:10.37,2013-09-19 08:10:00,
2013-09-19 04:15:00,56.8,52.4,30.15,NE,51,0.0,0.0,85,0.00,CLR,,0.00,WeatherDisplay:10.37,2013-09-19 08:15:00,
2013-09-19 04:20:00,56.8,52.7,30.15,NE,51,0.0,0.0,86,0.00,CLR,,0.00,WeatherDisplay:10.37,2013-09-19 08:20:00,
2013-09-19 04:30:00,57.0,52.9,30.15,NE,51,0.0,0.0,86,0.00,CLR,,0.00,WeatherDisplay:10.37,2013-09-19 08:30:00,
2013-09-19 04:35:00,57.2,53.0,30.15,NE,51,0.0,0.0,86,0.00,CLR,,0.00,WeatherDisplay:10.37,2013-09-19 08:35:00,
2013-09-19 04:40:00,57.2,53.0,30.15,NE,51,0.0,0.0,86,0.00,CLR,,0.00,WeatherDisplay:10.37,2013-09-19 08:40:00,
2013-09-19 04:45:00,57.2,53.4,30.15,NE,51,0.0,0.0,87,0.00,CLR,,0.00,WeatherDisplay:10.37,2013-09-19 08:45:00,
2013-09-19 04:50:00,57.2,53.4,30.15,NE,51,0.0,0.0,87,0.00,CLR,,0.00,WeatherDisplay:10.37,2013-09-19 08:50:00,
2013-09-19 04:55:00,57.4,53.5,30.15,NE,51,0.0,0.0,87,0.00,CLR,,0.00,WeatherDisplay:10.37,2013-09-19 08:55:00,
2013-09-19 05:00:00,57.4,53.5,30.15,NE,51,0.0,0.0,87,0.00,CLR,,0.00,WeatherDisplay:10.37,2013-09-19 09:00:00,
2013-09-19 05:05:00,57.4,53.5,30.15,NE,51,0.0,0.0,87,0.00,CLR,,0.00,WeatherDisplay:10.37,2013-09-19 09:05:00,
2013-09-19 05:10:00,57.4,53.5,30.15,NE,51,0.0,0.0,87,0.00,CLR,,0.00,WeatherDisplay:10.37,2013-09-19 09:10:00,
2013-09-19 05:15:00,57.4,53.9,30.15,NE,51,0.0,0.0,88,0.00,CLR,,0.00,WeatherDisplay:10.37,2013-09-19 09:15:00,
2013-09-19 05:25:00,57.6,54.0,30.15,NE,51,0.0,0.0,88,0.00,CLR,,0.00,WeatherDisplay:10.37,2013-09-19 09:25:00,
2013-09-19 05:30:00,57.6,54.0,30.15,NE,51,0.0,0.0,88,0.00,CLR,,0.00,WeatherDisplay:10.37,2013-09-19 09:30:00,
2013-09-19 05:35:00,57.7,54.2,30.15,NE,51,0.0,0.0,88,0.00,CLR,,0.00,WeatherDisplay:10.37,2013-09-19 09:35:00,
2013-09-19 05:40:00,57.7,54.2,30.15,NE,51,0.0,0.0,88,0.00,CLR,,0.00,WeatherDisplay:10.37,2013-09-19 09:40:00,
2013-09-19 05:45:00,57.8,54.3,30.15,NE,51,0.0,0.0,88,0.00,CLR,,0.00,WeatherDisplay:10.37,2013-09-19 09:45:00,
2013-09-19 05:50:00,57.9,54.4,30.15,NE,51,0.0,0.0,88,0.00,CLR,,0.00,WeatherDisplay:10.37,2013-09-19 09:50:00,
2013-09-19 06:00:00,58.1,54.6,30.15,NE,51,0.0,0.0,88,0.00,CLR,,0.00,WeatherDisplay:10.37,2013-09-19 10:00:00,
2013-09-19 06:05:00,58.2,54.7,30.15,NE,51,0.0,0.0,88,0.00,CLR,,0.00,WeatherDisplay:10.37,2013-09-19 10:05:00,
2013-09-19 06:10:00,58.3,54.7,30.16,NE,51,0.0,0.0,88,0.00,CLR,,0.00,WeatherDisplay:10.37,2013-09-19 10:10:00,
2013-09-19 06:15:00,58.5,54.9,30.18,NE,51,0.0,0.0,88,0.00,CLR,,0.00,WeatherDisplay:10.37,2013-09-19 10:15:00,
2013-09-19 06:20:00,58.5,54.9,30.18,NE,51,0.0,0.0,88,0.00,CLR,,0.00,WeatherDisplay:10.37,2013-09-19 10:20:00,
2013-09-19 06:25:00,58.5,55.0,30.18,NE,51,0.0,0.0,88,0.00,CLR,,0.00,WeatherDisplay:10.37,2013-09-19 10:25:00,
2013-09-19 06:30:00,58.6,55.1,30.18,NE,51,0.0,0.0,88,0.00,CLR,,0.00,WeatherDisplay:10.37,2013-09-19 10:30:00,
2013-09-19 06:35:00,58.8,55.3,30.18,NE,51,0.0,0.0,88,0.00,CLR,,0.00,WeatherDisplay:10.37,2013-09-19 10:35:00,
2013-09-19 06:40:00,58.8,55.3,30.16,NE,51,0.0,0.0,88,0.00,CLR,,0.00,WeatherDisplay:10.37,2013-09-19 10:40:00,
2013-09-19 06:50:00,59.0,55.4,30.15,NE,51,0.0,0.0,88,0.00,CLR,,0.00,WeatherDisplay:10.37,2013-09-19 10:50:00,
2013-09-19 06:55:00,59.0,55.4,30.15,NE,51,0.0,0.0,88,0.00,CLR,,0.00,WeatherDisplay:10.37,2013-09-19 10:55:00,
2013-09-19 07:00:00,59.0,55.4,30.15,NE,51,0.0,0.0,88,0.00,CLR,,0.00,WeatherDisplay:10.37,2013-09-19 11:00:00,
2013-09-19 07:05:00,59.0,55.4,30.15,NE,51,0.0,0.0,88,0.00,CLR,,0.00,WeatherDisplay:10.37,2013-09-19 11:05:00,
2013-09-19 07:10:00,59.2,55.6,30.15,NE,51,0.0,0.0,88,0.00,CLR,,0.00,WeatherDisplay:10.37,2013-09-19 11:10:00,
2013-09-19 07:15:00,59.2,55.6,30.15,NE,51,0.0,0.0,88,0.00,CLR,,0.00,WeatherDisplay:10.37,2013-09-19 11:15:00,
2013-09-19 07:20:00,59.4,55.8,30.15,NE,51,0.0,0.0,88,0.00,CLR,,0.00,WeatherDisplay:10.37,2013-09-19 11:20:00,
2013-09-19 07:25:00,59.4,55.8,30.15,NE,51,0.0,0.0,88,0.00,CLR,,0.00,WeatherDisplay:10.37,2013-09-19 11:25:00,
2013-09-19 07:30:00,59.4,55.8,30.15,NE,51,0.0,0.0,88,0.00,CLR,,0.00,WeatherDisplay:10.37,2013-09-19 11:30:00,
2013-09-19 07:35:00,59.5,55.9,30.15,NE,51,0.0,0.0,88,0.00,CLR,,0.00,WeatherDisplay:10.37,2013-09-19 11:35:00,
2013-09-19 07:40:00,59.5,56.0,30.17,NE,53,0.0,0.0,88,0.00,CLR,,0.00,WeatherDisplay:10.37,2013-09-19 11:40:00,
2013-09-19 07:45:00,59.7,56.1,30.18,ENE,59,0.0,0.0,88,0.00,CLR,,0.00,WeatherDisplay:10.37,2013-09-19 11:45:00,
2013-09-19 07:50:00,59.7,55.8,30.18,ENE,63,0.0,0.0,87,0.00,CLR,,0.00,WeatherDisplay:10.37,2013-09-19 11:50:00,
2013-09-19 07:55:00,59.8,55.9,30.18,ENE,63,0.0,0.0,87,0.00,CLR,,0.00,WeatherDisplay:10.37,2013-09-19 11:55:00,
2013-09-19 08:00:00,60.1,56.2,30.18,ENE,63,0.0,0.0,87,0.00,CLR,,0.00,WeatherDisplay:10.37,2013-09-19 12:00:00,
2013-09-19 08:05:00,60.1,55.9,30.18,ENE,63,0.0,0.0,86,0.00,CLR,,0.00,WeatherDisplay:10.37,2013-09-19 12:05:00,
2013-09-19 08:10:00,60.1,55.9,30.18,ENE,63,0.0,0.0,86,0.00,CLR,,0.00,WeatherDisplay:10.37,2013-09-19 12:10:00,
2013-09-19 08:15:00,60.3,56.1,30.18,ENE,63,0.0,0.0,86,0.00,CLR,,0.00,WeatherDisplay:10.37,2013-09-19 12:15:00,
2013-09-19 08:20:00,60.3,56.1,30.18,ENE,62,0.0,0.0,86,0.00,CLR,,0.00,WeatherDisplay:10.37,2013-09-19 12:20:00,
2013-09-19 08:25:00,60.4,55.9,30.18,ENE,62,0.0,0.0,85,0.00,CLR,,0.00,WeatherDisplay:10.37,2013-09-19 12:25:00,
2013-09-19 08:30:00,60.4,55.9,30.18,ENE,62,0.0,0.0,85,0.00,CLR,,0.00,WeatherDisplay:10.37,2013-09-19 12:30:00,
2013-09-19 08:35:00,60.6,56.1,30.18,ENE,63,0.0,0.0,85,0.00,CLR,,0.00,WeatherDisplay:10.37,2013-09-19 12:35:00,
2013-09-19 08:40:00,60.8,55.9,30.18,ENE,63,0.0,0.0,84,0.00,CLR,,0.00,WeatherDisplay:10.37,2013-09-19 12:40:00,
2013-09-19 08:45:00,61.0,56.1,30.18,ENE,63,0.0,0.0,84,0.00,CLR,,0.00,WeatherDisplay:10.37,2013-09-19 12:45:00,
2013-09-19 08:50:00,61.2,56.0,30.18,ENE,62,0.0,0.0,83,0.00,CLR,,0.00,WeatherDisplay:10.37,2013-09-19 12:50:00,
2013-09-19 08:55:00,61.3,56.1,30.18,ENE,63,0.0,0.0,83,0.00,CLR,,0.00,WeatherDisplay:10.37,2013-09-19 12:55:00,
2013-09-19 09:00:00,61.5,56.0,30.18,ENE,63,0.0,0.0,82,0.00,CLR,,0.00,WeatherDisplay:10.37,2013-09-19 13:00:00,
2013-09-19 09:05:00,61.5,56.0,30.18,ENE,63,0.0,0.0,82,0.00,CLR,,0.00,WeatherDisplay:10.37,2013-09-19 13:05:00,
2013-09-19 09:10:00,61.7,55.8,30.18,ENE,63,0.0,0.0,81,0.00,CLR,,0.00,WeatherDisplay:10.37,2013-09-19 13:10:00,
2013-09-19 09:15:00,61.9,56.0,30.18,ENE,63,0.0,0.0,81,0.00,CLR,,0.00,WeatherDisplay:10.37,2013-09-19 13:15:00,
2013-09-19 09:20:00,61.9,56.0,30.18,ENE,63,0.0,0.0,81,0.00,CLR,,0.00,WeatherDisplay:10.37,2013-09-19 13:20:00,
2013-09-19 09:25:00,61.9,55.6,30.18,ENE,63,0.0,0.0,80,0.00,CLR,,0.00,WeatherDisplay:10.37,2013-09-19 13:25:00,
2013-09-19 09:30:00,61.9,55.6,30.18,ENE,63,0.0,0.0,80,0.00,CLR,,0.00,WeatherDisplay:10.37,2013-09-19 13:30:00,
2013-09-19 09:35:00,62.1,55.5,30.18,ENE,63,0.0,0.0,79,0.00,CLR,,0.00,WeatherDisplay:10.37,2013-09-19 13:35:00,
2013-09-19 09:40:00,62.1,55.5,30.18,ENE,63,0.0,0.0,79,0.00,CLR,,0.00,WeatherDisplay:10.37,2013-09-19 13:40:00,
2013-09-19 09:45:00,62.2,55.3,30.18,ENE,63,0.0,0.0,78,0.00,CLR,,0.00,WeatherDisplay:10.37,2013-09-19 13:45:00,
2013-09-19 09:50:00,62.2,55.3,30.18,ENE,63,0.0,0.0,78,0.00,CLR,,0.00,WeatherDisplay:10.37,2013-09-19 13:50:00,
2013-09-19 09:55:00,62.4,55.1,30.18,ENE,63,0.0,0.0,77,0.00,CLR,,0.00,WeatherDisplay:10.37,2013-09-19 13:55:00,
2013-09-19 10:00:00,62.6,55.3,30.18,ENE,63,0.0,0.0,77,0.00,CLR,,0.00,WeatherDisplay:10.37,2013-09-19 14:00:00,
2013-09-19 10:05:00,62.6,55.3,30.18,ENE,63,0.0,0.0,77,0.00,CLR,,0.00,WeatherDisplay:10.37,2013-09-19 14:05:00,
2013-09-19 10:10:00,62.8,55.1,30.18,ENE,62,0.0,0.0,76,0.00,CLR,,0.00,WeatherDisplay:10.37,2013-09-19 14:10:00,
2013-09-19 10:15:00,62.8,55.1,30.18,ENE,62,0.0,0.0,76,0.00,CLR,,0.00,WeatherDisplay:10.37,2013-09-19 14:15:00,
2013-09-19 10:20:00,63.0,54.9,30.18,ENE,63,0.0,0.0,75,0.00,CLR,,0.00,WeatherDisplay:10.37,2013-09-19 14:20:00,
2013-09-19 10:25:00,63.2,55.2,30.18,ENE,63,0.0,0.0,75,0.00,CLR,,0.00,WeatherDisplay:10.37,2013-09-19 14:25:00,
2013-09-19 10:30:00,63.6,55.5,30.18,ENE,63,0.0,0.0,75,0.00,CLR,,0.00,WeatherDisplay:10.37,2013-09-19 14:30:00,
2013-09-19 10:35:00,64.0,55.9,30.18,ENE,63,0.0,0.0,75,0.00,CLR,,0.00,WeatherDisplay:10.37,2013-09-19 14:35:00,
2013-09-19 10:40:00,64.4,56.3,30.18,ENE,63,0.0,0.0,75,0.00,CLR,,0.00,WeatherDisplay:10.37,2013-09-19 14:40:00,
2013-09-19 10:45:00,64.8,56.3,30.18,ENE,63,0.0,0.0,74,0.00,CLR,,0.00,WeatherDisplay:10.37,2013-09-19 14:45:00,
2013-09-19 10:50:00,65.1,56.3,30.18,ENE,63,0.0,0.0,73,0.00,CLR,,0.00,WeatherDisplay:10.37,2013-09-19 14:50:00,
2013-09-19 11:00:00,65.8,55.8,30.18,ENE,63,0.0,0.0,70,0.00,CLR,,0.00,WeatherDisplay:10.37,2013-09-19 15:00:00,
2013-09-19 11:05:00,66.1,56.0,30.18,ENE,63,0.0,0.0,70,0.00,CLR,,0.00,WeatherDisplay:10.37,2013-09-19 15:05:00,
2013-09-19 11:10:00,66.3,55.8,30.18,ENE,63,0.0,0.0,69,0.00,CLR,,0.00,WeatherDisplay:10.37,2013-09-19 15:10:00,
2013-09-19 11:15:00,66.6,55.7,30.18,ENE,63,0.0,0.0,68,0.00,CLR,,0.00,WeatherDisplay:10.37,2013-09-19 15:15:00,
2013-09-19 11:20:00,66.9,55.6,30.18,ENE,63,0.0,0.0,67,0.00,CLR,,0.00,WeatherDisplay:10.37,2013-09-19 15:20:00,
2013-09-19 11:25:00,67.1,54.9,30.18,ENE,64,0.0,0.0,65,0.00,CLR,,0.00,WeatherDisplay:10.37,2013-09-19 15:25:00,
2013-09-19 11:30:00,67.3,55.1,30.18,SE,143,0.0,0.0,65,0.00,CLR,,0.00,WeatherDisplay:10.37,2013-09-19 15:30:00,
2013-09-19 11:40:00,67.6,54.6,30.18,South,182,0.0,0.0,63,0.00,CLR,,0.00,WeatherDisplay:10.37,2013-09-19 15:40:00,
2013-09-19 11:45:00,67.8,54.8,30.18,South,182,0.0,0.0,63,0.00,CLR,,0.00,WeatherDisplay:10.37,2013-09-19 15:45:00,
2013-09-19 11:50:00,68.2,54.7,30.18,South,182,0.0,0.0,62,0.00,CLR,,0.00,WeatherDisplay:10.37,2013-09-19 15:50:00,
2013-09-19 11:55:00,68.4,54.8,30.18,South,182,0.0,0.0,62,0.00,CLR,,0.00,WeatherDisplay:10.37,2013-09-19 15:55:00,
2013-09-19 12:00:00,68.7,55.2,30.18,South,182,0.0,0.0,62,0.00,CLR,,0.00,WeatherDisplay:10.37,2013-09-19 16:00:00,
2013-09-19 12:05:00,68.9,54.4,30.18,South,182,0.0,0.0,60,0.00,CLR,,0.00,WeatherDisplay:10.37,2013-09-19 16:05:00,
2013-09-19 12:15:00,69.6,54.7,30.18,South,182,0.0,0.0,59,0.00,CLR,,0.00,WeatherDisplay:10.37,2013-09-19 16:15:00,
2013-09-19 12:20:00,69.8,54.9,30.18,SSW,193,0.0,0.0,59,0.00,CLR,,0.00,WeatherDisplay:10.37,2013-09-19 16:20:00,
2013-09-19 12:30:00,70.3,54.9,30.18,SSW,202,0.0,0.0,58,0.00,CLR,,0.00,WeatherDisplay:10.37,2013-09-19 16:30:00,
2013-09-19 12:35:00,70.8,54.8,30.18,SSW,202,0.0,0.0,57,0.00,CLR,,0.00,WeatherDisplay:10.37,2013-09-19 16:35:00,
2013-09-19 12:40:00,71.1,55.1,30.18,South,176,0.0,0.0,57,0.00,CLR,,0.00,WeatherDisplay:10.37,2013-09-19 16:40:00,
2013-09-19 12:45:00,71.5,55.0,30.18,SE,146,0.0,0.0,56,0.00,CLR,,0.00,WeatherDisplay:10.37,2013-09-19 16:45:00,
2013-09-19 12:50:00,72.3,54.7,30.18,NW,326,0.0,0.0,54,0.00,CLR,,0.00,WeatherDisplay:10.37,2013-09-19 16:50:00,
2013-09-19 12:55:00,73.4,54.2,30.18,NNW,328,0.0,0.0,51,0.00,CLR,,0.00,WeatherDisplay:10.37,2013-09-19 16:55:00,
2013-09-19 13:00:00,74.6,54.2,30.18,NNE,25,0.0,0.0,49,0.00,CLR,,0.00,WeatherDisplay:10.37,2013-09-19 17:00:00,
2013-09-19 13:10:00,76.6,54.3,30.18,North,351,0.0,0.0,46,0.00,CLR,,0.00,WeatherDisplay:10.37,2013-09-19 17:10:00,
2013-09-19 13:15:00,77.4,55.0,30.15,East,81,0.0,0.0,46,0.00,CLR,,0.00,WeatherDisplay:10.37,2013-09-19 17:15:00,
2013-09-19 13:20:00,77.5,54.5,30.15,SE,127,0.0,0.0,45,0.00,CLR,,0.00,WeatherDisplay:10.37,2013-09-19 17:20:00,
2013-09-19 13:25:00,76.9,54.0,30.15,SSE,148,0.0,0.0,45,0.00,CLR,,0.00,WeatherDisplay:10.37,2013-09-19 17:25:00,
2013-09-19 13:30:00,76.6,54.3,30.15,SSE,150,0.0,0.0,46,0.00,CLR,,0.00,WeatherDisplay:10.37,2013-09-19 17:30:00,
2013-09-19 13:35:00,77.1,53.5,30.15,SSE,150,0.0,0.0,44,0.00,CLR,,0.00,WeatherDisplay:10.37,2013-09-19 17:35:00,
2013-09-19 13:40:00,77.8,54.2,30.15,SE,145,0.0,6.0,44,0.00,CLR,,0.00,WeatherDisplay:10.37,2013-09-19 17:40:00,
2013-09-19 13:45:00,78.5,55.4,30.15,ESE,109,0.0,0.0,45,0.00,CLR,,0.00,WeatherDisplay:10.37,2013-09-19 17:45:00,
2013-09-19 13:50:00,78.8,53.1,30.15,SE,138,0.0,0.0,41,0.00,CLR,,0.00,WeatherDisplay:10.37,2013-09-19 17:50:00,
2013-09-19 14:00:00,79.0,53.9,30.15,ESE,123,0.0,0.0,42,0.00,CLR,,0.00,WeatherDisplay:10.37,2013-09-19 18:00:00,
2013-09-19 14:05:00,79.3,54.3,30.15,ESE,113,0.0,4.0,42,0.00,CLR,,0.00,WeatherDisplay:10.37,2013-09-19 18:05:00,
2013-09-19 14:10:00,79.3,53.6,30.15,ENE,73,0.0,0.0,41,0.00,CLR,,0.00,WeatherDisplay:10.37,2013-09-19 18:10:00,
2013-09-19 14:15:00,79.5,54.4,30.15,East,83,0.0,0.0,42,0.00,CLR,,0.00,WeatherDisplay:10.37,2013-09-19 18:15:00,
2013-09-19 14:20:00,80.0,54.2,30.15,ENE,77,0.0,0.0,41,0.00,CLR,,0.00,WeatherDisplay:10.37,2013-09-19 18:20:00,
2013-09-19 14:25:00,80.6,54.7,30.13,NNW,334,0.0,0.0,41,0.00,CLR,,0.00,WeatherDisplay:10.37,2013-09-19 18:25:00,
2013-09-19 14:30:00,81.0,53.0,30.12,West,270,0.0,0.0,38,0.00,CLR,,0.00,WeatherDisplay:10.37,2013-09-19 18:30:00,
2013-09-19 14:35:00,80.8,53.6,30.12,SE,138,0.0,0.0,39,0.00,CLR,,0.00,WeatherDisplay:10.37,2013-09-19 18:35:00,
2013-09-19 14:40:00,80.4,54.6,30.12,SE,143,0.0,0.0,41,0.00,CLR,,0.00,WeatherDisplay:10.37,2013-09-19 18:40:00,
2013-09-19 14:45:00,80.4,53.9,30.12,SE,133,0.0,0.0,40,0.00,CLR,,0.00,WeatherDisplay:10.37,2013-09-19 18:45:00,
2013-09-19 14:50:00,80.2,54.4,30.12,ESE,118,0.0,0.0,41,0.00,CLR,,0.00,WeatherDisplay:10.37,2013-09-19 18:50:00,
2013-09-19 14:55:00,80.1,54.3,30.12,East,95,0.0,0.0,41,0.00,CLR,,0.00,WeatherDisplay:10.37,2013-09-19 18:55:00,
2013-09-19 15:00:00,79.9,53.4,30.12,North,10,0.0,0.0,40,0.00,CLR,,0.00,WeatherDisplay:10.37,2013-09-19 19:00:00,
2013-09-19 15:05:00,79.2,53.4,30.12,East,100,0.0,0.0,41,0.00,CLR,,0.00,WeatherDisplay:10.37,2013-09-19 19:05:00,
2013-09-19 15:10:00,78.6,54.2,30.12,ESE,120,0.0,0.0,43,0.00,CLR,,0.00,WeatherDisplay:10.37,2013-09-19 19:10:00,
2013-09-19 15:15:00,78.3,55.2,30.12,SE,144,0.0,0.0,45,0.00,CLR,,0.00,WeatherDisplay:10.37,2013-09-19 19:15:00,
2013-09-19 15:20:00,78.1,55.0,30.12,SE,146,0.0,0.0,45,0.00,CLR,,0.00,WeatherDisplay:10.37,2013-09-19 19:20:00,
2013-09-19 15:25:00,78.1,55.0,30.12,ESE,107,0.0,0.0,45,0.00,CLR,,0.00,WeatherDisplay:10.37,2013-09-19 19:25:00,
2013-09-19 15:30:00,78.1,55.0,30.12,East,95,0.0,0.0,45,0.00,CLR,,0.00,WeatherDisplay:10.37,2013-09-19 19:30:00,
2013-09-19 15:35:00,77.9,54.8,30.12,ENE,71,0.0,0.0,45,0.00,CLR,,0.00,WeatherDisplay:10.37,2013-09-19 19:35:00,
2013-09-19 15:40:00,77.9,54.8,30.11,NNE,16,0.0,0.0,45,0.00,CLR,,0.00,WeatherDisplay:10.37,2013-09-19 19:40:00,
2013-09-19 15:45:00,78.1,55.0,30.09,North,355,0.0,0.0,45,0.00,CLR,,0.00,WeatherDisplay:10.37,2013-09-19 19:45:00,
2013-09-19 15:50:00,78.1,55.0,30.09,North,352,0.0,0.0,45,0.00,CLR,,0.00,WeatherDisplay:10.37,2013-09-19 19:50:00,
2013-09-19 16:00:00,78.3,55.2,30.09,North,350,0.0,0.0,45,0.00,CLR,,0.00,WeatherDisplay:10.37,2013-09-19 20:00:00,
2013-09-19 16:05:00,78.1,55.0,30.09,North,350,0.0,0.0,45,0.00,CLR,,0.00,WeatherDisplay:10.37,2013-09-19 20:05:00,
2013-09-19 16:10:00,78.1,55.0,30.09,North,349,0.0,0.0,45,0.00,CLR,,0.00,WeatherDisplay:10.37,2013-09-19 20:10:00,
2013-09-19 16:15:00,78.1,55.0,30.09,NNE,23,0.0,0.0,45,0.00,CLR,,0.00,WeatherDisplay:10.37,2013-09-19 20:15:00,
2013-09-19 16:20:00,77.9,54.8,30.09,ENE,78,0.0,0.0,45,0.00,CLR,,0.00,WeatherDisplay:10.37,2013-09-19 20:20:00,
2013-09-19 16:25:00,77.5,55.1,30.09,East,100,0.0,0.0,46,0.00,CLR,,0.00,WeatherDisplay:10.37,2013-09-19 20:25:00,
2013-09-19 16:30:00,77.5,55.1,30.09,ESE,109,0.0,0.0,46,0.00,CLR,,0.00,WeatherDisplay:10.37,2013-09-19 20:30:00,
2013-09-19 16:35:00,77.4,55.0,30.09,ESE,108,0.0,0.0,46,0.00,CLR,,0.00,WeatherDisplay:10.37,2013-09-19 20:35:00,
2013-09-19 16:40:00,77.4,55.0,30.09,ESE,107,0.0,0.0,46,0.00,CLR,,0.00,WeatherDisplay:10.37,2013-09-19 20:40:00,
2013-09-19 16:45:00,77.2,54.8,30.09,ESE,107,0.0,0.0,46,0.00,CLR,,0.00,WeatherDisplay:10.37,2013-09-19 20:45:00,
2013-09-19 16:50:00,77.2,55.4,30.09,ESE,107,0.0,0.0,47,0.00,CLR,,0.00,WeatherDisplay:10.37,2013-09-19 20:50:00,
2013-09-19 16:55:00,77.0,55.8,30.09,ESE,106,0.0,0.0,48,0.00,CLR,,0.00,WeatherDisplay:10.37,2013-09-19 20:55:00,
2013-09-19 17:00:00,77.2,56.0,30.09,East,100,0.0,0.0,48,0.00,CLR,,0.00,WeatherDisplay:10.37,2013-09-19 21:00:00,
2013-09-19 17:05:00,77.2,55.4,30.09,East,94,0.0,0.0,47,0.00,CLR,,0.00,WeatherDisplay:10.37,2013-09-19 21:05:00,
2013-09-19 17:10:00,77.4,55.6,30.09,East,98,0.0,0.0,47,0.00,CLR,,0.00,WeatherDisplay:10.37,2013-09-19 21:10:00,
2013-09-19 17:15:00,77.5,55.7,30.09,ESE,105,0.0,0.0,47,0.00,CLR,,0.00,WeatherDisplay:10.37,2013-09-19 21:15:00,
2013-09-19 17:20:00,77.7,55.3,30.09,SE,125,0.0,0.0,46,0.00,CLR,,0.00,WeatherDisplay:10.37,2013-09-19 21:20:00,
2013-09-19 17:30:00,77.7,55.9,30.09,ESE,108,0.0,0.0,47,0.00,CLR,,0.00,WeatherDisplay:10.37,2013-09-19 21:30:00,
2013-09-19 17:35:00,77.7,55.9,30.09,ESE,108,0.0,0.0,47,0.00,CLR,,0.00,WeatherDisplay:10.37,2013-09-19 21:35:00,
2013-09-19 17:40:00,77.5,56.3,30.09,ESE,108,0.0,0.0,48,0.00,CLR,,0.00,WeatherDisplay:10.37,2013-09-19 21:40:00,
2013-09-19 17:45:00,77.3,56.1,30.09,ESE,109,0.0,0.0,48,0.00,CLR,,0.00,WeatherDisplay:10.37,2013-09-19 21:45:00,
2013-09-19 17:50:00,77.1,55.9,30.09,ESE,109,0.0,0.0,48,0.00,CLR,,0.00,WeatherDisplay:10.37,2013-09-19 21:50:00,
2013-09-19 17:55:00,76.8,55.6,30.09,ESE,109,0.0,0.0,48,0.00,CLR,,0.00,WeatherDisplay:10.37,2013-09-19 21:55:00,
2013-09-19 18:00:00,76.6,56.0,30.09,ESE,109,0.0,0.0,49,0.00,CLR,,0.00,WeatherDisplay:10.37,2013-09-19 22:00:00,
2013-09-19 18:05:00,76.5,55.9,30.09,ESE,109,0.0,0.0,49,0.00,CLR,,0.00,WeatherDisplay:10.37,2013-09-19 22:05:00,
2013-09-19 18:10:00,76.3,55.7,30.09,ESE,109,0.0,0.0,49,0.00,CLR,,0.00,WeatherDisplay:10.37,2013-09-19 22:10:00,
2013-09-19 18:15:00,76.3,56.3,30.09,ESE,109,0.0,0.0,50,0.00,CLR,,0.00,WeatherDisplay:10.37,2013-09-19 22:15:00,
2013-09-19 18:20:00,76.1,56.1,30.09,ESE,109,0.0,0.0,50,0.00,CLR,,0.00,WeatherDisplay:10.37,2013-09-19 22:20:00,
2013-09-19 18:25:00,76.1,56.7,30.09,ESE,109,0.0,0.0,51,0.00,CLR,,0.00,WeatherDisplay:10.37,2013-09-19 22:25:00,
2013-09-19 18:30:00,75.9,57.0,30.09,ESE,109,0.0,0.0,52,0.00,CLR,,0.00,WeatherDisplay:10.37,2013-09-19 22:30:00,
2013-09-19 18:35:00,75.7,56.9,30.09,ESE,109,0.0,0.0,52,0.00,CLR,,0.00,WeatherDisplay:10.37,2013-09-19 22:35:00,
2013-09-19 18:40:00,75.6,56.7,30.09,ESE,109,0.0,0.0,52,0.00,CLR,,0.00,WeatherDisplay:10.37,2013-09-19 22:40:00,
2013-09-19 18:45:00,75.5,56.7,30.09,ESE,109,0.0,0.0,52,0.00,CLR,,0.00,WeatherDisplay:10.37,2013-09-19 22:45:00,
2013-09-19 18:50:00,75.2,56.9,30.09,ESE,109,0.0,0.0,53,0.00,CLR,,0.00,WeatherDisplay:10.37,2013-09-19 22:50:00,
2013-09-19 18:55:00,75.0,56.7,30.09,ESE,109,0.0,0.0,53,0.00,CLR,,0.00,WeatherDisplay:10.37,2013-09-19 22:55:00,
2013-09-19 19:00:00,74.7,56.4,30.09,ESE,109,0.0,0.0,53,0.00,CLR,,0.00,WeatherDisplay:10.37,2013-09-19 23:00:00,
2013-09-19 19:05:00,74.4,56.1,30.09,ESE,109,0.0,0.0,53,0.00,CLR,,0.00,WeatherDisplay:10.37,2013-09-19 23:05:00,
2013-09-19 19:10:00,74.1,56.4,30.09,ESE,109,0.0,0.0,54,0.00,CLR,,0.00,WeatherDisplay:10.37,2013-09-19 23:10:00,
2013-09-19 19:15:00,73.8,56.6,30.09,ESE,109,0.0,0.0,55,0.00,CLR,,0.00,WeatherDisplay:10.37,2013-09-19 23:15:00,
2013-09-19 19:20:00,73.4,56.7,30.09,ESE,109,0.0,0.0,56,0.00,CLR,,0.00,WeatherDisplay:10.37,2013-09-19 23:20:00,
2013-09-19 19:25:00,73.2,57.1,30.09,ESE,109,0.0,0.0,57,0.00,CLR,,0.00,WeatherDisplay:10.37,2013-09-19 23:25:00,
2013-09-19 19:30:00,73.0,56.9,30.09,ESE,109,0.0,0.0,57,0.00,CLR,,0.00,WeatherDisplay:10.37,2013-09-19 23:30:00,
2013-09-19 19:35:00,72.7,57.1,30.09,ESE,109,0.0,0.0,58,0.00,CLR,,0.00,WeatherDisplay:10.37,2013-09-19 23:35:00,
2013-09-19 19:40:00,72.5,56.9,30.09,ESE,109,0.0,0.0,58,0.00,CLR,,0.00,WeatherDisplay:10.37,2013-09-19 23:40:00,
2013-09-19 19:45:00,72.3,57.2,30.09,ESE,109,0.0,0.0,59,0.00,CLR,,0.00,WeatherDisplay:10.37,2013-09-19 23:45:00,
2013-09-19 19:50:00,72.2,57.6,30.09,ESE,109,0.0,0.0,60,0.00,CLR,,0.00,WeatherDisplay:10.37,2013-09-19 23:50:00,
2013-09-19 20:00:00,72.0,57.8,30.09,ESE,109,0.0,0.0,61,0.00,CLR,,0.00,WeatherDisplay:10.37,2013-09-20 00:00:00,
2013-09-19 20:05:00,71.8,57.6,30.09,ESE,109,0.0,0.0,61,0.00,CLR,,0.00,WeatherDisplay:10.37,2013-09-20 00:05:00,
2013-09-19 20:10:00,71.6,57.4,30.09,ESE,109,0.0,0.0,61,0.00,CLR,,0.00,WeatherDisplay:10.37,2013-09-20 00:10:00,
2013-09-19 20:15:00,71.4,57.7,30.09,ESE,109,0.0,0.0,62,0.00,CLR,,0.00,WeatherDisplay:10.37,2013-09-20 00:15:00,
2013-09-19 20:20:00,71.2,57.5,30.09,ESE,109,0.0,0.0,62,0.00,CLR,,0.00,WeatherDisplay:10.37,2013-09-20 00:20:00,
2013-09-19 20:30:00,70.9,58.1,30.09,ESE,109,0.0,0.0,64,0.00,CLR,,0.00,WeatherDisplay:10.37,2013-09-20 00:30:00,
2013-09-19 20:35:00,70.7,58.4,30.09,ESE,109,0.0,0.0,65,0.00,CLR,,0.00,WeatherDisplay:10.37,2013-09-20 00:35:00,
2013-09-19 20:40:00,70.5,58.6,30.09,ESE,109,0.0,0.0,66,0.00,CLR,,0.00,WeatherDisplay:10.37,2013-09-20 00:40:00,
2013-09-19 20:45:00,70.3,58.4,30.09,ESE,109,0.0,0.0,66,0.00,CLR,,0.00,WeatherDisplay:10.37,2013-09-20 00:45:00,
2013-09-19 20:50:00,70.0,58.5,30.09,ESE,109,0.0,0.0,67,0.00,CLR,,0.00,WeatherDisplay:10.37,2013-09-20 00:50:00,
2013-09-19 20:55:00,69.9,58.4,30.09,ESE,109,0.0,0.0,67,0.00,CLR,,0.00,WeatherDisplay:10.37,2013-09-20 00:55:00,
2013-09-19 21:00:00,69.8,58.8,30.09,ESE,109,0.0,0.0,68,0.00,CLR,,0.00,WeatherDisplay:10.37,2013-09-20 01:00:00,
2013-09-19 21:05:00,69.6,58.6,30.09,ESE,109,0.0,0.0,68,0.00,CLR,,0.00,WeatherDisplay:10.37,2013-09-20 01:05:00,
2013-09-19 21:10:00,69.5,58.9,30.09,ESE,109,0.0,0.0,69,0.00,CLR,,0.00,WeatherDisplay:10.37,2013-09-20 01:10:00,
2013-09-19 21:15:00,69.4,58.8,30.09,ESE,109,0.0,0.0,69,0.00,CLR,,0.00,WeatherDisplay:10.37,2013-09-20 01:15:00,
2013-09-19 21:20:00,69.3,59.1,30.09,ESE,109,0.0,0.0,70,0.00,CLR,,0.00,WeatherDisplay:10.37,2013-09-20 01:20:00,
2013-09-19 21:30:00,68.9,58.7,30.09,ESE,109,0.0,0.0,70,0.00,CLR,,0.00,WeatherDisplay:10.37,2013-09-20 01:30:00,
2013-09-19 21:35:00,68.7,58.9,30.09,ESE,109,0.0,0.0,71,0.00,CLR,,0.00,WeatherDisplay:10.37,2013-09-20 01:35:00,
2013-09-19 21:40:00,68.7,59.3,30.09,ESE,109,0.0,0.0,72,0.00,CLR,,0.00,WeatherDisplay:10.37,2013-09-20 01:40:00,
2013-09-19 21:45:00,68.5,59.2,30.09,ESE,109,0.0,0.0,72,0.00,CLR,,0.00,WeatherDisplay:10.37,2013-09-20 01:45:00,
2013-09-19 21:50:00,68.4,59.0,30.09,ESE,109,0.0,0.0,72,0.00,CLR,,0.00,WeatherDisplay:10.37,2013-09-20 01:50:00,
2013-09-19 21:55:00,68.2,59.2,30.09,ESE,109,0.0,0.0,73,0.00,CLR,,0.00,WeatherDisplay:10.37,2013-09-20 01:55:00,
2013-09-19 22:00:00,68.0,59.0,30.09,ESE,109,0.0,0.0,73,0.00,CLR,,0.00,WeatherDisplay:10.37,2013-09-20 02:00:00,
2013-09-19 22:05:00,67.8,59.2,30.09,ESE,109,0.0,0.0,74,0.00,CLR,,0.00,WeatherDisplay:10.37,2013-09-20 02:05:00,
2013-09-19 22:10:00,67.6,59.1,30.09,ESE,109,0.0,0.0,74,0.00,CLR,,0.00,WeatherDisplay:10.37,2013-09-20 02:10:00,
2013-09-19 22:15:00,67.6,59.4,30.09,ESE,109,0.0,0.0,75,0.00,CLR,,0.00,WeatherDisplay:10.37,2013-09-20 02:15:00,
2013-09-19 22:20:00,67.5,59.3,30.09,ESE,109,0.0,0.0,75,0.00,CLR,,0.00,WeatherDisplay:10.37,2013-09-20 02:20:00,
2013-09-19 22:30:00,67.3,59.5,30.09,ESE,109,0.0,0.0,76,0.00,CLR,,0.00,WeatherDisplay:10.37,2013-09-20 02:30:00,
2013-09-19 22:35:00,67.0,59.2,30.09,ESE,109,0.0,0.0,76,0.00,CLR,,0.00,WeatherDisplay:10.37,2013-09-20 02:35:00,
2013-09-19 22:40:00,66.9,59.5,30.09,ESE,109,0.0,0.0,77,0.00,CLR,,0.00,WeatherDisplay:10.37,2013-09-20 02:40:00,
2013-09-19 22:45:00,66.7,59.7,30.09,ESE,109,0.0,0.0,78,0.00,CLR,,0.00,WeatherDisplay:10.37,2013-09-20 02:45:00,
2013-09-19 22:50:00,66.6,59.5,30.09,ESE,109,0.0,0.0,78,0.00,CLR,,0.00,WeatherDisplay:10.37,2013-09-20 02:50:00,
2013-09-19 22:55:00,66.4,59.3,30.09,ESE,109,0.0,0.0,78,0.00,CLR,,0.00,WeatherDisplay:10.37,2013-09-20 02:55:00,
2013-09-19 23:00:00,66.2,59.5,30.09,ESE,109,0.0,0.0,79,0.00,CLR,,0.00,WeatherDisplay:10.37,2013-09-20 03:00:00,
2013-09-19 23:05:00,66.0,59.3,30.09,ESE,109,0.0,0.0,79,0.00,CLR,,0.00,WeatherDisplay:10.37,2013-09-20 03:05:00,
2013-09-19 23:10:00,66.0,59.7,30.09,ESE,109,0.0,0.0,80,0.00,CLR,,0.00,WeatherDisplay:10.37,2013-09-20 03:10:00,
2013-09-19 23:15:00,65.9,59.5,30.09,ESE,109,0.0,0.0,80,0.00,CLR,,0.00,WeatherDisplay:10.37,2013-09-20 03:15:00,
2013-09-19 23:20:00,65.8,59.5,30.09,ESE,109,0.0,0.0,80,0.00,CLR,,0.00,WeatherDisplay:10.37,2013-09-20 03:20:00,
2013-09-19 23:25:00,65.7,59.7,30.09,ESE,109,0.0,0.0,81,0.00,CLR,,0.00,WeatherDisplay:10.37,2013-09-20 03:25:00,
2013-09-19 23:30:00,65.5,59.5,30.09,ESE,109,0.0,0.0,81,0.00,CLR,,0.00,WeatherDisplay:10.37,2013-09-20 03:30:00,
2013-09-19 23:35:00,65.5,59.5,30.09,ESE,109,0.0,0.0,81,0.00,CLR,,0.00,WeatherDisplay:10.37,2013-09-20 03:35:00,
2013-09-19 23:40:00,65.5,59.8,30.09,ESE,109,0.0,0.0,82,0.00,CLR,,0.00,WeatherDisplay:10.37,2013-09-20 03:40:00,
2013-09-19 23:45:00,65.5,59.8,30.09,ESE,109,0.0,0.0,82,0.00,CLR,,0.00,WeatherDisplay:10.37,2013-09-20 03:45:00,
2013-09-19 23:50:00,65.5,60.2,30.09,ESE,109,0.0,0.0,83,0.00,CLR,,0.00,WeatherDisplay:10.37,2013-09-20 03:50:00,
2013-09-19 23:55:00,65.5,60.2,30.09,ESE,109,0.0,0.0,83,0.00,CLR,,0.00,WeatherDisplay:10.37,2013-09-20 03:55:00,